Wind_Speed
52 52 52 52 53 53 53 53 53 53 53 53 53 53 53 54 55 55 56 56 57 58 59 60 61 61 61 61 61 61 62 61 61 60 60 61 62 61 62 62 61 61
55 55 54 54 55 55 55 55 55 55 56 56 56 56 56 56 57 57 58 59 60 60 61 61 62 63 63 64 64 64 64 64 63 63 62 63 63 63 63 64 63 63
58 57 57 57 57 57 57 57 57 57 57 58 58 59 59 59 60 60 60 61 62 62 63 63 63 64 65 65 66 66 66 66 66 66 65 65 65 65 65 65 65 65
61 60 60 60 60 60 60 60 59 59 59 60 60 60 61 61 62 62 63 63 63 64 64 65 65 66 66 67 68 68 68 68 68 68 68 67 67 67 67 67 67 67
64 64 63 63 63 63 63 63 62 62 62 62 63 63 63 63 63 64 65 65 65 65 65 65 66 67 68 69 69 70 70 70 70 70 70 70 69 69 69 68 68 68
67 67 67 67 67 66 66 66 65 65 65 65 65 65 65 65 65 65 66 66 67 67 67 67 67 68 68 70 71 72 72 72 72 71 72 72 72 71 71 70 70 70
70 70 69 70 69 69 69 69 68 68 68 68 68 68 68 68 68 67 67 67 68 68 68 69 69 70 70 70 71 72 73 73 73 73 73 74 74 73 73 72 72 72
72 72 72 72 72 72 72 71 71 71 70 70 70 70 70 70 70 70 69 69 69 69 70 70 71 71 71 72 72 72 73 73 74 74 74 75 75 75 75 74 74 74
74 74 74 74 74 74 74 73 73 72 72 72 72 72 72 72 72 72 72 71 72 72 72 72 73 73 73 73 73 73 73 73 74 74 75 75 76 77 77 76 76 76
75 75 75 75 76 75 75 75 75 74 74 74 74 74 74 74 74 73 73 73 74 74 75 75 75 74 74 73 73 74 74 75 75 75 75 76 76 77 77 78 77 78
76 76 77 77 76 76 77 76 76 76 76 76 76 76 76 75 75 75 75 75 76 76 77 77 77 76 76 75 75 75 75 76 76 76 76 77 77 77 77 78 78 78
79 79 79 79 78 78 78 78 77 77 76 76 77 77 77 76 76 76 76 77 78 79 79 79 78 77 77 76 76 77 77 77 78 78 78 78 78 78 78 78 78 78
83 83 82 82 82 81 81 81 80 79 78 78 78 78 77 77 77 77 77 78 79 80 80 80 79 78 78 78 78 78 79 79 80 80 80 80 80 80 80 80 79 79
86 86 85 85 85 85 85 85 84 83 82 81 80 80 79 79 79 79 79 80 81 81 81 80 79 79 78 78 79 80 80 81 82 82 82 81 81 81 82 82 81 81
87 86 86 86 87 88 88 88 88 87 86 85 84 83 83 82 82 82 82 83 83 83 82 81 80 80 79 80 80 81 81 82 82 83 83 83 83 83 84 84 84 84
87 86 86 87 88 89 90 90 90 90 89 89 88 88 87 86 86 86 86 86 85 85 84 83 82 82 82 82 82 82 82 82 82 83 83 84 84 84 85 85 86 86
85 85 85 86 87 88 90 91 91 90 90 91 91 90 90 89 89 89 90 90 89 88 87 86 85 85 85 84 84 84 83 83 83 83 83 84 84 84 85 86 86 87
83 83 82 83 85 87 88 89 89 89 90 91 92 92 92 92 92 92 93 92 92 91 90 89 89 89 88 88 87 86 85 84 84 84 84 84 84 85 85 86 86 86
83 82 81 82 84 86 87 87 86 86 87 88 90 91 92 92 93 94 95 94 94 93 92 92 92 92 91 91 90 90 89 87 86 86 85 85 86 86 86 86 86 87
81 82 81 83 85 86 86 85 85 85 85 86 87 88 89 91 93 94 95 95 95 95 95 94 94 93 93 93 92 92 92 91 90 89 88 88 88 87 87 87 87 87
78 82 82 83 85 86 85 85 84 84 84 84 85 86 87 88 90 92 93 94 95 95 95 95 96 96 96 95 95 94 94 93 93 92 91 91 91 90 89 89 88 88
74 80 81 81 83 84 83 83 83 82 82 82 82 83 84 85 86 88 89 91 92 93 93 93 95 96 97 97 97 97 97 96 95 94 93 93 93 92 92 91 91 90
74 78 80 80 82 81 80 80 81 79 78 78 78 79 78 78 79 81 83 85 86 87 88 89 91 93 95 96 97 98 98 97 96 95 95 94 93 93 93 93 93 93
76 78 78 80 81 79 78 79 79 77 75 73 71 70 68 67 69 71 74 77 79 79 80 82 85 88 91 93 95 96 96 95 95 95 94 93 93 93 94 94 93 94
78 79 78 79 79 78 77 77 76 75 72 67 63 61 59 59 60 62 65 67 69 70 73 76 79 82 85 89 91 91 91 91 91 90 90 90 91 92 93 93 93 94
79 79 79 78 78 77 76 75 74 73 68 63 59 57 55 55 55 56 57 59 62 65 68 71 73 77 81 85 85 85 85 85 84 84 84 85 86 88 89 90 92 93
Wind_Direction
250 250 249 248 249 248 248 247 247 247 246 246 246 245 245 244 244 244 244 244 244 243 244 244 244 245 245 245 245 245 245 246 246 245 243 243 243 242 241 240 238 236
252 251 250 249 249 248 248 248 247 247 247 247 246 246 246 246 245 244 244 244 244 244 244 244 244 245 245 245 245 245 245 245 246 246 246 244 244 243 243 242 241 239
253 253 252 251 250 250 249 248 248 248 248 248 248 247 247 247 247 246 246 245 245 245 245 245 245 246 246 246 246 246 246 246 246 246 246 245 245 245 244 243 243 242
253 253 253 252 252 251 251 250 250 249 249 249 249 249 248 248 248 248 248 247 247 246 246 246 246 246 246 247 247 247 247 247 247 247 246 246 246 246 246 245 245 244
254 253 253 253 252 252 252 252 252 251 251 251 251 250 250 249 249 249 249 249 249 248 247 247 246 246 247 247 247 248 248 248 248 248 248 248 247 246 246 246 246 246
255 254 254 253 253 253 253 253 253 253 252 252 252 252 251 251 250 250 250 250 250 250 249 249 248 247 247 247 247 248 248 248 248 249 249 250 249 248 247 247 247 247
255 255 255 255 254 254 254 254 254 254 254 253 253 253 252 252 252 252 252 251 251 251 250 250 249 249 248 247 247 248 248 248 249 249 249 250 250 250 250 249 248 248
256 256 256 256 255 255 255 255 255 255 254 254 254 254 253 253 253 253 253 253 253 253 252 251 251 250 249 249 249 248 248 248 248 249 249 249 250 251 251 250 250 249
256 256 256 256 256 256 256 256 255 255 255 254 254 254 254 254 254 254 254 254 254 254 253 253 252 251 251 250 250 250 250 249 249 249 248 249 249 250 251 251 251 250
256 256 256 256 256 256 256 256 256 256 256 255 255 255 255 255 255 255 255 255 254 254 254 253 253 252 252 251 251 251 251 251 250 250 249 249 249 249 250 250 250 250
257 257 256 256 256 255 255 255 255 255 256 256 256 256 256 256 256 256 255 255 255 255 254 253 253 253 252 252 252 252 252 252 252 251 251 250 250 250 249 249 249 249
256 256 256 256 256 256 256 256 256 255 255 255 256 256 256 256 256 256 256 256 256 255 255 254 253 253 252 252 252 252 252 252 252 252 252 251 251 251 251 250 249 249
255 255 256 256 256 257 257 256 256 256 256 255 255 255 255 256 256 256 256 256 256 255 255 255 255 254 253 253 252 252 252 251 251 251 251 251 251 251 251 251 251 250
254 254 255 256 256 257 257 257 257 257 256 256 256 255 255 255 255 255 255 255 255 255 255 255 255 255 255 254 254 253 252 251 251 251 251 251 251 251 251 251 251 251
253 254 254 255 255 256 256 257 257 257 257 257 256 256 256 256 256 255 255 255 255 255 255 255 255 255 255 255 254 254 253 252 252 252 251 251 251 251 251 251 251 251
253 253 254 254 254 255 255 256 256 257 257 257 257 257 257 257 257 257 256 256 256 256 256 256 255 255 255 254 254 254 254 253 253 253 252 252 251 251 251 251 251 251
255 254 253 253 254 254 254 255 255 255 256 257 257 257 258 258 258 257 257 257 257 257 257 256 256 256 255 255 254 254 254 254 254 253 253 253 252 252 251 251 251 251
256 255 254 254 254 254 254 254 254 254 255 255 256 257 257 258 258 258 258 258 258 258 258 257 257 257 256 256 256 255 254 254 254 254 254 254 253 253 252 251 251 251
257 256 255 255 255 255 254 254 254 254 254 254 255 256 256 257 257 258 258 259 259 259 259 259 258 258 258 257 257 256 256 255 254 254 253 253 253 253 253 252 252 251
259 258 256 256 256 256 255 255 255 255 255 254 255 255 256 256 257 257 258 259 259 260 260 260 260 260 259 259 258 257 257 256 255 254 254 253 253 253 253 253 253 252
259 259 257 256 256 256 256 256 256 255 255 255 255 255 255 256 256 257 258 259 259 260 260 261 261 261 261 260 260 259 258 257 256 255 254 254 253 253 253 253 253 253
255 257 257 257 256 257 257 257 256 256 256 256 255 255 254 255 256 257 258 259 259 260 260 260 261 261 261 260 260 259 259 258 257 256 255 254 254 253 253 253 253 253
250 252 254 256 257 258 258 259 259 258 257 257 256 256 255 255 256 257 257 258 259 259 260 260 260 260 260 260 259 259 259 258 257 257 256 255 254 254 253 253 252 252
248 250 251 253 255 257 258 260 260 261 261 260 260 261 260 259 258 258 258 258 259 259 259 259 259 259 259 259 259 259 258 258 258 257 256 256 255 254 254 253 253 252
248 250 251 252 254 256 257 259 262 264 265 266 266 266 264 262 260 259 259 259 259 258 258 258 258 258 259 258 258 259 259 259 258 258 257 257 256 255 255 254 253 252
247 250 251 253 255 257 259 261 264 266 268 269 269 269 267 264 263 262 261 260 259 257 257 257 257 258 258 259 260 260 260 260 260 259 258 257 257 256 255 254 253 253
Height
10590 10592 10593 10594 10594 10595 10597 10599 10601 10603 10604 10605 10606 10608 10609 10610 10611 10613 10614 10616 10617 10618 10620 10621 10623 10624 10626 10628 10630 10632 10633 10635 10638 10640 10642 10645 10647 10650 10652 10654 10657 10659
10583 10585 10586 10587 10588 10588 10590 10592 10594 10595 10597 10598 10600 10601 10602 10603 10604 10605 10607 10608 10609 10611 10612 10614 10616 10617 10619 10620 10622 10624 10626 10628 10630 10632 10634 10636 10639 10641 10644 10646 10649 10651
10576 10577 10579 10580 10581 10581 10582 10584 10586 10588 10589 10590 10592 10594 10595 10596 10597 10598 10599 10600 10602 10603 10605 10607 10609 10610 10611 10613 10614 10615 10617 10620 10622 10624 10626 10628 10631 10633 10635 10638 10641 10643
10567 10569 10571 10572 10574 10574 10575 10577 10579 10581 10581 10583 10584 10586 10587 10588 10589 10590 10591 10592 10594 10596 10598 10600 10602 10603 10604 10605 10606 10607 10609 10611 10614 10616 10618 10620 10623 10625 10627 10630 10632 10634
10559 10561 10562 10564 10565 10567 10568 10569 10571 10573 10574 10575 10576 10577 10579 10580 10581 10582 10583 10584 10586 10588 10590 10592 10594 10595 10597 10597 10598 10599 10601 10603 10606 10608 10609 10611 10615 10618 10620 10622 10624 10626
10549 10551 10553 10554 10556 10558 10559 10561 10563 10565 10566 10567 10568 10569 10570 10571 10572 10574 10575 10576 10577 10580 10582 10583 10585 10587 10588 10589 10590 10591 10592 10595 10598 10600 10602 10603 10605 10609 10611 10614 10617 10618
10539 10541 10543 10544 10546 10548 10550 10552 10554 10556 10557 10558 10560 10561 10562 10563 10564 10565 10567 10568 10569 10571 10573 10574 10576 10577 10579 10581 10582 10583 10585 10587 10590 10592 10594 10595 10597 10599 10602 10605 10608 10610
10529 10531 10532 10534 10536 10538 10539 10541 10543 10546 10548 10549 10551 10552 10552 10554 10555 10557 10559 10560 10561 10562 10564 10565 10566 10567 10570 10572 10573 10575 10577 10579 10582 10584 10586 10587 10589 10590 10593 10596 10599 10601
10519 10520 10521 10523 10525 10527 10529 10531 10533 10535 10537 10539 10540 10541 10543 10544 10546 10548 10550 10551 10552 10553 10553 10554 10556 10558 10560 10563 10565 10567 10569 10571 10573 10576 10578 10579 10580 10582 10584 10587 10590 10592
10508 10510 10511 10513 10514 10516 10518 10520 10522 10524 10526 10528 10529 10531 10532 10534 10536 10538 10540 10541 10541 10542 10542 10543 10545 10548 10551 10554 10557 10558 10560 10562 10564 10566 10568 10570 10571 10573 10575 10577 10580 10582
10497 10498 10500 10501 10503 10505 10507 10509 10511 10513 10516 10517 10519 10520 10522 10524 10526 10528 10529 10530 10530 10530 10530 10532 10534 10538 10541 10545 10547 10549 10551 10552 10553 10556 10558 10560 10562 10563 10565 10567 10570 10572
10485 10487 10488 10490 10492 10493 10495 10497 10500 10502 10505 10507 10508 10510 10512 10514 10515 10517 10518 10518 10518 10518 10518 10521 10524 10527 10531 10534 10537 10539 10540 10541 10543 10545 10547 10549 10551 10552 10554 10556 10559 10562
10474 10476 10477 10479 10481 10482 10483 10486 10488 10491 10493 10495 10497 10499 10501 10503 10505 10506 10507 10506 10506 10506 10508 10510 10514 10517 10521 10523 10525 10527 10528 10530 10531 10533 10535 10537 10540 10541 10542 10544 10547 10550
10463 10465 10467 10468 10469 10470 10472 10474 10476 10478 10481 10483 10485 10487 10489 10491 10493 10494 10494 10494 10494 10495 10497 10500 10503 10507 10509 10512 10513 10514 10516 10517 10519 10521 10523 10525 10528 10530 10531 10533 10535 10537
10450 10453 10455 10456 10457 10458 10459 10461 10463 10466 10468 10470 10473 10475 10477 10479 10481 10481 10481 10482 10482 10484 10487 10490 10493 10495 10497 10499 10500 10501 10503 10505 10507 10509 10512 10514 10516 10518 10519 10521 10522 10524
10439 10441 10443 10444 10444 10445 10446 10448 10450 10453 10456 10458 10459 10461 10464 10466 10467 10468 10468 10469 10470 10473 10476 10479 10481 10483 10484 10485 10487 10488 10490 10493 10495 10497 10499 10501 10504 10505 10507 10508 10510 10512
10426 10429 10431 10432 10432 10432 10433 10435 10438 10442 10444 10445 10446 10449 10451 10453 10454 10454 10454 10455 10457 10461 10464 10466 10468 10469 10470 10472 10473 10476 10478 10481 10483 10485 10486 10489 10491 10493 10494 10495 10497 10500
10412 10416 10418 10419 10419 10419 10420 10422 10426 10430 10432 10433 10434 10436 10438 10439 10440 10440 10441 10442 10445 10448 10450 10452 10453 10455 10456 10458 10460 10463 10466 10469 10471 10473 10474 10476 10478 10480 10481 10482 10484 10487
10399 10403 10405 10406 10405 10406 10408 10411 10415 10418 10419 10421 10423 10424 10426 10426 10426 10427 10427 10429 10432 10434 10436 10437 10439 10441 10443 10445 10447 10449 10452 10455 10458 10460 10462 10463 10464 10466 10468 10469 10471 10473
10387 10389 10392 10393 10392 10393 10397 10401 10404 10406 10408 10410 10411 10412 10413 10414 10414 10414 10415 10417 10420 10421 10422 10424 10426 10427 10429 10431 10433 10435 10437 10440 10444 10446 10448 10450 10451 10453 10454 10456 10458 10460
10376 10374 10377 10379 10379 10381 10386 10389 10392 10394 10396 10398 10399 10400 10401 10401 10402 10403 10404 10406 10407 10408 10410 10412 10412 10413 10414 10416 10419 10420 10422 10425 10428 10431 10433 10435 10437 10439 10441 10443 10444 10446
10366 10360 10361 10365 10367 10370 10375 10377 10379 10382 10384 10385 10386 10387 10388 10389 10391 10392 10393 10394 10395 10396 10398 10399 10399 10399 10400 10402 10403 10404 10406 10409 10412 10415 10418 10420 10422 10424 10426 10428 10430 10432
10354 10351 10351 10353 10356 10359 10362 10364 10366 10369 10371 10372 10374 10375 10377 10380 10381 10382 10383 10383 10384 10385 10386 10386 10385 10384 10385 10387 10387 10388 10390 10393 10396 10399 10402 10405 10408 10409 10411 10414 10416 10418
10341 10342 10343 10344 10346 10349 10351 10353 10354 10357 10358 10361 10363 10366 10369 10370 10371 10372 10372 10372 10372 10373 10373 10372 10371 10370 10371 10371 10371 10372 10375 10378 10381 10385 10388 10391 10393 10394 10396 10399 10401 10404
10329 10331 10334 10335 10337 10340 10342 10343 10344 10346 10348 10351 10355 10357 10359 10360 10360 10361 10361 10361 10361 10361 10360 10359 10359 10358 10356 10356 10357 10358 10362 10365 10367 10371 10375 10377 10378 10379 10381 10383 10386 10389
10320 10323 10326 10328 10329 10332 10334 10335 10336 10337 10340 10343 10346 10347 10349 10349 10350 10351 10351 10350 10349 10349 10348 10347 10348 10347 10344 10343 10345 10347 10349 10351 10355 10359 10361 10362 10363 10365 10367 10369 10370 10373